Yankton, SD

12:46 AM CDT on May 21, 2018 (GMT -0500)
Gurney Municipal

Weather History for KYKN - June, 2013

Change the Weather History Date:

Saturday, June 22, 2013

  Actual Average Record
Temperature  
Mean Temperature 70 °F -  
Max Temperature 77 °F 84 °F 110 °F (1988)
Min Temperature 64 °F 58 °F 44 °F (2001)
Cooling Degree Days 4    
Growing Degree Days 20 (Base 50)    
Moisture  
Dew Point 65 °F    
Average Humidity 83    
Maximum Humidity 100    
Minimum Humidity 69    
Precipitation  
Precipitation 0.30 in - - ()
Sea Level Pressure  
Sea Level Pressure 29.84 in    
Wind  
Wind Speed 13 mph (East)    
Max Wind Speed 45 mph    
Max Gust Speed 53 mph    
Visibility 10 miles    
Events Thunderstorm    
Averages and records for this station are not official NWS values.
T = Trace of Precipitation, MM = Missing Value Source: NWS Daily Summary

Daily Weather History Graph

Daily Weather History Graph

Search for Another Location

Airport or City:

Astronomy

Jun. 22, 2013 Rise Set
Actual Time 5:51 AM CDT 9:12 PM CDT
Civil Twilight 5:15 AM CDT 9:47 PM CDT
Nautical Twilight 4:29 AM CDT 10:33 PM CDT
Astronomical Twilight 3:32 AM CDT 11:30 PM CDT
Moon 8:26 PM CDT (6/22) 5:06 AM CDT (6/22)
Length of Visible Light 16h 31m
Length of Day
15h 21m
Waxing Gibbous, 99% of the Moon is Illuminated
Jun 22
Waxing Gibbous
Jun 23
Full
Jun 29
Last Quarter
Jul 8
New
Jul 15
First Quarter

Hourly Weather History & Observations

Time (CDT) Temp. Dew Point Humidity Pressure Visibility Wind Dir Wind Speed Gust Speed Precip Events Conditions
12:15 AM 71.6 °F 64.4 °F 78% 29.76 in 10.0 mi ESE 9.2 mph - N/A   Clear
12:35 AM 73.4 °F 66.2 °F 78% 29.74 in 10.0 mi SE 9.2 mph - N/A   Clear
12:55 AM - - N/A% 29.87 in 10.0 mi West 44.9 mph 52.9 mph N/A Thunderstorm Scattered Clouds
1:15 AM 64.4 °F 62.6 °F 94% 29.84 in 9.0 mi WNW 29.9 mph 39.1 mph 0.04 in Thunderstorm Mostly Cloudy
1:35 AM 66.2 °F 62.6 °F 88% 29.89 in 10.0 mi West 20.7 mph 26.5 mph 0.09 in   Scattered Clouds
1:55 AM 66.2 °F 62.6 °F 88% 29.91 in 10.0 mi WNW 17.3 mph 23.0 mph 0.09 in   Mostly Cloudy
2:15 AM 66.2 °F 62.6 °F 88% 29.91 in 10.0 mi West 15.0 mph - N/A   Mostly Cloudy
2:35 AM 66.2 °F 62.6 °F 88% 29.93 in 10.0 mi West 6.9 mph - N/A Thunderstorm Mostly Cloudy
2:55 AM 64.4 °F 62.6 °F 94% 29.90 in 10.0 mi NNW 19.6 mph - 0.01 in   Mostly Cloudy
3:15 AM 64.4 °F 62.6 °F 94% 29.89 in 10.0 mi NNE 13.8 mph - N/A   Mostly Cloudy
3:35 AM 64.4 °F 62.6 °F 94% 29.92 in 10.0 mi East 10.4 mph - 0.01 in   Mostly Cloudy
3:55 AM 64.4 °F 62.6 °F 94% 29.95 in 10.0 mi ESE 10.4 mph - 0.01 in   Mostly Cloudy
4:15 AM 64.4 °F 62.6 °F 94% 29.94 in 10.0 mi ESE 9.2 mph - N/A   Mostly Cloudy
4:35 AM 64.4 °F 62.6 °F 94% 29.93 in 10.0 mi ESE 6.9 mph - N/A   Mostly Cloudy
4:55 AM 66.2 °F 62.6 °F 88% 29.96 in 10.0 mi WSW 5.8 mph - N/A   Mostly Cloudy
5:15 AM 66.2 °F 62.6 °F 88% 29.94 in 5.0 mi ENE 3.5 mph - 0.06 in   Overcast
5:35 AM 64.4 °F 64.4 °F 100% 29.92 in 10.0 mi East 11.5 mph - 0.10 in   Overcast
5:55 AM 64.4 °F 64.4 °F 100% 29.93 in 10.0 mi ESE 12.7 mph - 0.13 in   Overcast
6:15 AM 66.2 °F 64.4 °F 94% 29.91 in 10.0 mi SE 13.8 mph 21.9 mph 0.03 in   Overcast
6:35 AM 66.2 °F 64.4 °F 94% 29.91 in 10.0 mi SSE 20.7 mph 24.2 mph 0.05 in   Mostly Cloudy
6:55 AM 66.2 °F 64.4 °F 94% 29.94 in 10.0 mi SSE 13.8 mph 19.6 mph 0.06 in   Overcast
7:15 AM 66.2 °F 64.4 °F 94% 29.86 in 10.0 mi ESE 19.6 mph 26.5 mph N/A   Overcast
7:35 AM 66.2 °F 64.4 °F 94% 29.77 in 10.0 mi ESE 17.3 mph 24.2 mph N/A   Scattered Clouds
7:55 AM 66.2 °F 62.6 °F 88% 29.77 in 10.0 mi ESE 15.0 mph 31.1 mph N/A   Clear
8:15 AM 66.2 °F 62.6 °F 88% 29.80 in 10.0 mi NE 15.0 mph 21.9 mph N/A   Scattered Clouds
8:35 AM 66.2 °F 62.6 °F 88% 29.79 in 10.0 mi ENE 13.8 mph 17.3 mph N/A   Scattered Clouds
8:55 AM 66.2 °F 62.6 °F 88% 29.81 in 10.0 mi NE 12.7 mph - N/A   Clear
9:15 AM 66.2 °F 62.6 °F 88% 29.82 in 10.0 mi ENE 9.2 mph - N/A   Clear
9:35 AM 66.2 °F 64.4 °F 94% 29.85 in 10.0 mi ESE 5.8 mph - N/A   Clear
9:55 AM 68.0 °F 64.4 °F 88% 29.86 in 10.0 mi SE 4.6 mph - N/A   Clear
10:15 AM 69.8 °F 64.4 °F 83% 29.87 in 10.0 mi South 8.1 mph - N/A   Clear
10:35 AM 69.8 °F 64.4 °F 83% 29.86 in 10.0 mi SW 8.1 mph - N/A   Clear
10:55 AM 71.6 °F 64.4 °F 78% 29.87 in 10.0 mi SW 10.4 mph - N/A   Clear
11:15 AM 71.6 °F 64.4 °F 78% 29.88 in 10.0 mi West 10.4 mph - N/A   Clear
11:35 AM 71.6 °F 64.4 °F 78% 29.90 in 10.0 mi WSW 10.4 mph - N/A   Clear
11:55 AM 71.6 °F 64.4 °F 78% 29.90 in 10.0 mi West 9.2 mph - N/A   Clear
12:15 PM 71.6 °F 64.4 °F 78% 29.90 in 10.0 mi West 8.1 mph - N/A   Clear
12:35 PM 71.6 °F 64.4 °F 78% 29.91 in 10.0 mi WNW 10.4 mph - N/A   Clear
12:55 PM 71.6 °F 64.4 °F 78% 29.91 in 10.0 mi WNW 9.2 mph - N/A   Clear
1:15 PM 71.6 °F 64.4 °F 78% 29.91 in 10.0 mi WNW 8.1 mph - N/A   Clear
1:35 PM 71.6 °F 64.4 °F 78% 29.90 in 10.0 mi NW 6.9 mph - N/A   Clear
1:55 PM 71.6 °F 64.4 °F 78% 29.90 in 10.0 mi NW 6.9 mph - N/A   Clear
2:15 PM 73.4 °F 64.4 °F 73% 29.89 in 10.0 mi NNW 6.9 mph - N/A   Clear
2:35 PM 73.4 °F 64.4 °F 73% 29.89 in 10.0 mi NNW 6.9 mph - N/A   Clear
2:55 PM 73.4 °F 64.4 °F 73% 29.89 in 10.0 mi North 5.8 mph - N/A   Clear
3:15 PM 73.4 °F 66.2 °F 78% 29.88 in 10.0 mi North 9.2 mph - N/A   Partly Cloudy
3:35 PM 73.4 °F 66.2 °F 78% 29.88 in 9.0 mi NE 5.8 mph - N/A   Clear
3:55 PM 75.2 °F 66.2 °F 73% 29.87 in 10.0 mi NE 4.6 mph - N/A   Clear
4:15 PM 75.2 °F 64.4 °F 69% 29.86 in 10.0 mi NE 6.9 mph - N/A   Clear
4:35 PM 75.2 °F 64.4 °F 69% 29.85 in 10.0 mi ENE 8.1 mph - N/A   Clear
4:55 PM 75.2 °F 66.2 °F 73% 29.85 in 10.0 mi East 4.6 mph - N/A   Scattered Clouds
5:15 PM 75.2 °F 66.2 °F 73% 29.84 in 10.0 mi East 9.2 mph - N/A   Partly Cloudy
5:35 PM 75.2 °F 68.0 °F 78% 29.83 in 10.0 mi East 8.1 mph - N/A   Clear
5:55 PM 75.2 °F 66.2 °F 73% 29.81 in 10.0 mi East 9.2 mph - N/A   Clear
6:15 PM 75.2 °F 68.0 °F 78% 29.80 in 10.0 mi East 9.2 mph - N/A   Clear
6:35 PM 75.2 °F 66.2 °F 73% 29.79 in 10.0 mi East 11.5 mph - N/A   Clear
6:55 PM 75.2 °F 66.2 °F 73% 29.79 in 10.0 mi East 8.1 mph - N/A   Clear
7:15 PM 75.2 °F 66.2 °F 73% 29.78 in 10.0 mi East 11.5 mph - N/A   Clear
7:35 PM 75.2 °F 66.2 °F 73% 29.78 in 10.0 mi East 11.5 mph 17.3 mph N/A   Clear
7:55 PM 73.4 °F 66.2 °F 78% 29.78 in 10.0 mi East 9.2 mph - N/A   Clear
8:15 PM 73.4 °F 66.2 °F 78% 29.77 in 10.0 mi East 10.4 mph - N/A   Clear
8:35 PM 73.4 °F 66.2 °F 78% 29.76 in 10.0 mi East 11.5 mph 18.4 mph N/A   Clear
8:55 PM 73.4 °F 66.2 °F 78% 29.76 in 10.0 mi East 9.2 mph - N/A   Partly Cloudy
9:15 PM 73.4 °F 66.2 °F 78% 29.77 in 10.0 mi East 9.2 mph - N/A   Clear
9:35 PM 71.6 °F 66.2 °F 83% 29.76 in 10.0 mi ENE 9.2 mph - N/A   Clear
9:55 PM 71.6 °F 66.2 °F 83% 29.76 in 10.0 mi ENE 10.4 mph - N/A   Clear
10:15 PM 71.6 °F 66.2 °F 83% 29.76 in 10.0 mi East 9.2 mph - N/A   Clear
10:35 PM - - N/A% 29.75 in 10.0 mi East 5.8 mph - N/A   Clear
10:55 PM 71.6 °F 66.2 °F 83% 29.72 in 10.0 mi ESE 10.4 mph - N/A   Clear
11:15 PM 71.6 °F 66.2 °F 83% 29.68 in 10.0 mi SE 12.7 mph - N/A   Clear
11:35 PM 75.2 °F 66.2 °F 73% 29.65 in 10.0 mi SE 15.0 mph 19.6 mph N/A   Clear
11:55 PM 77.0 °F 66.2 °F 69% 29.67 in 10.0 mi SE 13.8 mph 20.7 mph N/A   Clear